owner,sensor,date,latitude,longitude,vertical_datum,sea_water_practical_salinity,qcFlag 
ENP,ioos.station.NOAA.NDBC:WWEF1:1,2016-12-01T00:00:00Z,25.2320,-80.9380,1.5,10.74,1111122 
ENP,ioos.station.NOAA.NDBC:WWEF1:1,2016-12-01T01:00:00Z,25.2320,-80.9380,1.5,10.74,1111122 
ENP,ioos.station.NOAA.NDBC:WWEF1:1,2016-12-01T04:00:00Z,25.2320,-80.9380,1.5,10.74,1111122 
ENP,ioos.station.NOAA.NDBC:WWEF1:1,2016-12-01T07:00:00Z,25.2320,-80.9380,1.5,10.81,1111122 
ENP,ioos.station.NOAA.NDBC:WWEF1:1,2016-12-01T08:00:00Z,25.2320,-80.9380,1.5,10.74,1111122 
ENP,ioos.station.NOAA.NDBC:WWEF1:1,2016-12-01T09:00:00Z,25.2320,-80.9380,1.5,10.74,1111122 
ENP,ioos.station.NOAA.NDBC:WWEF1:1,2016-12-01T11:00:00Z,25.2320,-80.9380,1.5,10.81,1111122 
ENP,ioos.station.NOAA.NDBC:WWEF1:1,2016-12-01T12:00:00Z,25.2320,-80.9380,1.5,10.74,1111122 
ENP,ioos.station.NOAA.NDBC:WWEF1:1,2016-12-01T13:00:00Z,25.2320,-80.9380,1.5,10.81,1111122 
ENP,ioos.station.NOAA.NDBC:WWEF1:1,2016-12-01T14:00:00Z,25.2320,-80.9380,1.5,10.81,1111122 
ENP,ioos.station.NOAA.NDBC:WWEF1:1,2016-12-01T15:00:00Z,25.2320,-80.9380,1.5,10.81,1111122 
ENP,ioos.station.NOAA.NDBC:WWEF1:1,2016-12-01T16:00:00Z,25.2320,-80.9380,1.5,10.81,1111122 
ENP,ioos.station.NOAA.NDBC:WWEF1:1,2016-12-01T18:00:00Z,25.2320,-80.9380,1.5,10.74,1111122 
ENP,ioos.station.NOAA.NDBC:WWEF1:1,2016-12-01T19:00:00Z,25.2320,-80.9380,1.5,10.81,1111122 
ENP,ioos.station.NOAA.NDBC:WWEF1:1,2016-12-01T20:00:00Z,25.2320,-80.9380,1.5,10.81,1111122 
ENP,ioos.station.NOAA.NDBC:WWEF1:1,2016-12-01T21:00:00Z,25.2320,-80.9380,1.5,10.81,1111122 
ENP,ioos.station.NOAA.NDBC:WWEF1:1,2016-12-01T22:00:00Z,25.2320,-80.9380,1.5,10.81,1111122 
ENP,ioos.station.NOAA.NDBC:WWEF1:1,2016-12-01T23:00:00Z,25.2320,-80.9380,1.5,10.81,1111122 
ENP,ioos.station.NOAA.NDBC:WWEF1:1,2016-12-02T00:00:00Z,25.2320,-80.9380,1.5,10.81,1111122 
ENP,ioos.station.NOAA.NDBC:WWEF1:1,2016-12-02T01:00:00Z,25.2320,-80.9380,1.5,10.81,1111122 
ENP,ioos.station.NOAA.NDBC:WWEF1:1,2016-12-02T04:00:00Z,25.2320,-80.9380,1.5,10.81,1111122 
ENP,ioos.station.NOAA.NDBC:WWEF1:1,2016-12-02T05:00:00Z,25.2320,-80.9380,1.5,10.81,1111122 
ENP,ioos.station.NOAA.NDBC:WWEF1:1,2016-12-02T07:00:00Z,25.2320,-80.9380,1.5,10.81,1111122 
ENP,ioos.station.NOAA.NDBC:WWEF1:1,2016-12-02T08:00:00Z,25.2320,-80.9380,1.5,10.81,1111122 
ENP,ioos.station.NOAA.NDBC:WWEF1:1,2016-12-02T09:00:00Z,25.2320,-80.9380,1.5,10.87,1111122 
ENP,ioos.station.NOAA.NDBC:WWEF1:1,2016-12-02T11:00:00Z,25.2320,-80.9380,1.5,10.87,1111122 
ENP,ioos.station.NOAA.NDBC:WWEF1:1,2016-12-02T12:00:00Z,25.2320,-80.9380,1.5,10.94,1111122 
ENP,ioos.station.NOAA.NDBC:WWEF1:1,2016-12-02T13:00:00Z,25.2320,-80.9380,1.5,10.94,1111122 
ENP,ioos.station.NOAA.NDBC:WWEF1:1,2016-12-02T14:00:00Z,25.2320,-80.9380,1.5,10.94,1111122 
ENP,ioos.station.NOAA.NDBC:WWEF1:1,2016-12-02T15:00:00Z,25.2320,-80.9380,1.5,11.0,1111122 
ENP,ioos.station.NOAA.NDBC:WWEF1:1,2016-12-02T16:00:00Z,25.2320,-80.9380,1.5,11.06,1111122 
ENP,ioos.station.NOAA.NDBC:WWEF1:1,2016-12-02T17:00:00Z,25.2320,-80.9380,1.5,11.26,1111122 
ENP,ioos.station.NOAA.NDBC:WWEF1:1,2016-12-02T18:00:00Z,25.2320,-80.9380,1.5,11.26,1111122 
ENP,ioos.station.NOAA.NDBC:WWEF1:1,2016-12-02T19:00:00Z,25.2320,-80.9380,1.5,11.32,1111122 
ENP,ioos.station.NOAA.NDBC:WWEF1:1,2016-12-02T21:00:00Z,25.2320,-80.9380,1.5,11.32,1111122 
ENP,ioos.station.NOAA.NDBC:WWEF1:1,2016-12-02T23:00:00Z,25.2320,-80.9380,1.5,11.13,1111122 
ENP,ioos.station.NOAA.NDBC:WWEF1:1,2016-12-03T00:00:00Z,25.2320,-80.9380,1.5,11.13,1111122 
ENP,ioos.station.NOAA.NDBC:WWEF1:1,2016-12-03T01:00:00Z,25.2320,-80.9380,1.5,11.06,1111122 
ENP,ioos.station.NOAA.NDBC:WWEF1:1,2016-12-03T04:00:00Z,25.2320,-80.9380,1.5,11.0,1111122 
ENP,ioos.station.NOAA.NDBC:WWEF1:1,2016-12-03T07:00:00Z,25.2320,-80.9380,1.5,11.06,1111122 
ENP,ioos.station.NOAA.NDBC:WWEF1:1,2016-12-03T08:00:00Z,25.2320,-80.9380,1.5,11.0,1111122 
ENP,ioos.station.NOAA.NDBC:WWEF1:1,2016-12-03T09:00:00Z,25.2320,-80.9380,1.5,11.0,1111122 
ENP,ioos.station.NOAA.NDBC:WWEF1:1,2016-12-03T11:00:00Z,25.2320,-80.9380,1.5,11.0,1111122 
ENP,ioos.station.NOAA.NDBC:WWEF1:1,2016-12-03T13:00:00Z,25.2320,-80.9380,1.5,11.0,1111122 
ENP,ioos.station.NOAA.NDBC:WWEF1:1,2016-12-03T14:00:00Z,25.2320,-80.9380,1.5,11.0,1111122 
ENP,ioos.station.NOAA.NDBC:WWEF1:1,2016-12-03T15:00:00Z,25.2320,-80.9380,1.5,11.0,1111122 
ENP,ioos.station.NOAA.NDBC:WWEF1:1,2016-12-03T16:00:00Z,25.2320,-80.9380,1.5,11.06,1111122 
ENP,ioos.station.NOAA.NDBC:WWEF1:1,2016-12-03T17:00:00Z,25.2320,-80.9380,1.5,11.06,1111122 
ENP,ioos.station.NOAA.NDBC:WWEF1:1,2016-12-03T18:00:00Z,25.2320,-80.9380,1.5,11.06,1111122 
ENP,ioos.station.NOAA.NDBC:WWEF1:1,2016-12-03T19:00:00Z,25.2320,-80.9380,1.5,11.06,1111122 
ENP,ioos.station.NOAA.NDBC:WWEF1:1,2016-12-03T20:00:00Z,25.2320,-80.9380,1.5,11.06,1111122 
ENP,ioos.station.NOAA.NDBC:WWEF1:1,2016-12-03T21:00:00Z,25.2320,-80.9380,1.5,11.13,1111122 
ENP,ioos.station.NOAA.NDBC:WWEF1:1,2016-12-03T22:00:00Z,25.2320,-80.9380,1.5,11.13,1111122 
ENP,ioos.station.NOAA.NDBC:WWEF1:1,2016-12-03T23:00:00Z,25.2320,-80.9380,1.5,11.13,1111122 
ENP,ioos.station.NOAA.NDBC:WWEF1:1,2016-12-04T00:00:00Z,25.2320,-80.9380,1.5,11.06,1111122 
ENP,ioos.station.NOAA.NDBC:WWEF1:1,2016-12-04T01:00:00Z,25.2320,-80.9380,1.5,11.06,1111122 
ENP,ioos.station.NOAA.NDBC:WWEF1:1,2016-12-04T04:00:00Z,25.2320,-80.9380,1.5,11.0,1111122 
ENP,ioos.station.NOAA.NDBC:WWEF1:1,2016-12-04T07:00:00Z,25.2320,-80.9380,1.5,11.13,1111122 
ENP,ioos.station.NOAA.NDBC:WWEF1:1,2016-12-04T08:00:00Z,25.2320,-80.9380,1.5,11.13,1111122 
ENP,ioos.station.NOAA.NDBC:WWEF1:1,2016-12-04T09:00:00Z,25.2320,-80.9380,1.5,11.13,1111122 
ENP,ioos.station.NOAA.NDBC:WWEF1:1,2016-12-04T10:00:00Z,25.2320,-80.9380,1.5,11.13,1111122 
ENP,ioos.station.NOAA.NDBC:WWEF1:1,2016-12-04T12:00:00Z,25.2320,-80.9380,1.5,11.19,1111122 
ENP,ioos.station.NOAA.NDBC:WWEF1:1,2016-12-04T13:00:00Z,25.2320,-80.9380,1.5,11.13,1111122 
ENP,ioos.station.NOAA.NDBC:WWEF1:1,2016-12-04T14:00:00Z,25.2320,-80.9380,1.5,11.13,1111122 
ENP,ioos.station.NOAA.NDBC:WWEF1:1,2016-12-04T15:00:00Z,25.2320,-80.9380,1.5,11.13,1111122 
ENP,ioos.station.NOAA.NDBC:WWEF1:1,2016-12-04T16:00:00Z,25.2320,-80.9380,1.5,11.19,1111122 
ENP,ioos.station.NOAA.NDBC:WWEF1:1,2016-12-04T17:00:00Z,25.2320,-80.9380,1.5,11.19,1111122 
ENP,ioos.station.NOAA.NDBC:WWEF1:1,2016-12-04T18:00:00Z,25.2320,-80.9380,1.5,11.13,1111122 
ENP,ioos.station.NOAA.NDBC:WWEF1:1,2016-12-04T19:00:00Z,25.2320,-80.9380,1.5,11.0,1111122 
ENP,ioos.station.NOAA.NDBC:WWEF1:1,2016-12-04T20:00:00Z,25.2320,-80.9380,1.5,10.94,1111122 
ENP,ioos.station.NOAA.NDBC:WWEF1:1,2016-12-04T21:00:00Z,25.2320,-80.9380,1.5,10.81,1111122 
ENP,ioos.station.NOAA.NDBC:WWEF1:1,2016-12-04T22:00:00Z,25.2320,-80.9380,1.5,10.61,1111122 
ENP,ioos.station.NOAA.NDBC:WWEF1:1,2016-12-04T23:00:00Z,25.2320,-80.9380,1.5,10.68,1111122 
ENP,ioos.station.NOAA.NDBC:WWEF1:1,2016-12-05T00:00:00Z,25.2320,-80.9380,1.5,10.68,1111122 
ENP,ioos.station.NOAA.NDBC:WWEF1:1,2016-12-05T01:00:00Z,25.2320,-80.9380,1.5,10.68,1111122 
ENP,ioos.station.NOAA.NDBC:WWEF1:1,2016-12-05T02:00:00Z,25.2320,-80.9380,1.5,10.68,1111122 
ENP,ioos.station.NOAA.NDBC:WWEF1:1,2016-12-05T04:00:00Z,25.2320,-80.9380,1.5,10.68,1111122 
ENP,ioos.station.NOAA.NDBC:WWEF1:1,2016-12-05T06:00:00Z,25.2320,-80.9380,1.5,10.61,1111122 
ENP,ioos.station.NOAA.NDBC:WWEF1:1,2016-12-05T07:00:00Z,25.2320,-80.9380,1.5,10.61,1111122 
ENP,ioos.station.NOAA.NDBC:WWEF1:1,2016-12-05T08:00:00Z,25.2320,-80.9380,1.5,10.61,1111122 
ENP,ioos.station.NOAA.NDBC:WWEF1:1,2016-12-05T09:00:00Z,25.2320,-80.9380,1.5,10.61,1111122 
ENP,ioos.station.NOAA.NDBC:WWEF1:1,2016-12-05T11:00:00Z,25.2320,-80.9380,1.5,10.55,1111122 
ENP,ioos.station.NOAA.NDBC:WWEF1:1,2016-12-05T12:00:00Z,25.2320,-80.9380,1.5,10.55,1111122 
ENP,ioos.station.NOAA.NDBC:WWEF1:1,2016-12-05T13:00:00Z,25.2320,-80.9380,1.5,10.55,1111122 
ENP,ioos.station.NOAA.NDBC:WWEF1:1,2016-12-05T14:00:00Z,25.2320,-80.9380,1.5,10.55,1111122 
ENP,ioos.station.NOAA.NDBC:WWEF1:1,2016-12-05T15:00:00Z,25.2320,-80.9380,1.5,10.61,1111122 
ENP,ioos.station.NOAA.NDBC:WWEF1:1,2016-12-05T21:00:00Z,25.2320,-80.9380,1.5,10.61,1111122 
ENP,ioos.station.NOAA.NDBC:WWEF1:1,2016-12-05T22:00:00Z,25.2320,-80.9380,1.5,10.61,1111122 
ENP,ioos.station.NOAA.NDBC:WWEF1:1,2016-12-05T23:00:00Z,25.2320,-80.9380,1.5,10.61,1111122 
ENP,ioos.station.NOAA.NDBC:WWEF1:1,2016-12-06T00:00:00Z,25.2320,-80.9380,1.5,10.61,1111122 
ENP,ioos.station.NOAA.NDBC:WWEF1:1,2016-12-06T01:00:00Z,25.2320,-80.9380,1.5,10.61,1111122 
ENP,ioos.station.NOAA.NDBC:WWEF1:1,2016-12-06T02:00:00Z,25.2320,-80.9380,1.5,10.61,1111122 
ENP,ioos.station.NOAA.NDBC:WWEF1:1,2016-12-06T03:00:00Z,25.2320,-80.9380,1.5,10.61,1111122 
ENP,ioos.station.NOAA.NDBC:WWEF1:1,2016-12-06T04:00:00Z,25.2320,-80.9380,1.5,10.61,1111122 
ENP,ioos.station.NOAA.NDBC:WWEF1:1,2016-12-06T06:00:00Z,25.2320,-80.9380,1.5,10.61,1111122 
ENP,ioos.station.NOAA.NDBC:WWEF1:1,2016-12-06T07:00:00Z,25.2320,-80.9380,1.5,10.55,1111122 
ENP,ioos.station.NOAA.NDBC:WWEF1:1,2016-12-06T08:00:00Z,25.2320,-80.9380,1.5,10.61,1111122 
ENP,ioos.station.NOAA.NDBC:WWEF1:1,2016-12-06T09:00:00Z,25.2320,-80.9380,1.5,10.55,1111122 
ENP,ioos.station.NOAA.NDBC:WWEF1:1,2016-12-06T10:00:00Z,25.2320,-80.9380,1.5,10.48,1111122 
ENP,ioos.station.NOAA.NDBC:WWEF1:1,2016-12-06T11:00:00Z,25.2320,-80.9380,1.5,10.48,1111122 
ENP,ioos.station.NOAA.NDBC:WWEF1:1,2016-12-06T12:00:00Z,25.2320,-80.9380,1.5,10.48,1111122 
ENP,ioos.station.NOAA.NDBC:WWEF1:1,2016-12-06T13:00:00Z,25.2320,-80.9380,1.5,10.48,1111122 
ENP,ioos.station.NOAA.NDBC:WWEF1:1,2016-12-06T14:00:00Z,25.2320,-80.9380,1.5,10.48,1111122 
ENP,ioos.station.NOAA.NDBC:WWEF1:1,2016-12-06T15:00:00Z,25.2320,-80.9380,1.5,10.68,1111122 
ENP,ioos.station.NOAA.NDBC:WWEF1:1,2016-12-06T16:00:00Z,25.2320,-80.9380,1.5,10.68,1111122 
ENP,ioos.station.NOAA.NDBC:WWEF1:1,2016-12-06T18:00:00Z,25.2320,-80.9380,1.5,10.74,1111122 
ENP,ioos.station.NOAA.NDBC:WWEF1:1,2016-12-06T19:00:00Z,25.2320,-80.9380,1.5,10.68,1111122 
ENP,ioos.station.NOAA.NDBC:WWEF1:1,2016-12-06T20:00:00Z,25.2320,-80.9380,1.5,10.61,1111122 
ENP,ioos.station.NOAA.NDBC:WWEF1:1,2016-12-06T21:00:00Z,25.2320,-80.9380,1.5,10.55,1111122 
ENP,ioos.station.NOAA.NDBC:WWEF1:1,2016-12-06T22:00:00Z,25.2320,-80.9380,1.5,10.55,1111122 
ENP,ioos.station.NOAA.NDBC:WWEF1:1,2016-12-06T23:00:00Z,25.2320,-80.9380,1.5,10.48,1111122 
ENP,ioos.station.NOAA.NDBC:WWEF1:1,2016-12-07T01:00:00Z,25.2320,-80.9380,1.5,10.55,1111122 
ENP,ioos.station.NOAA.NDBC:WWEF1:1,2016-12-07T04:00:00Z,25.2320,-80.9380,1.5,10.55,1111122 
ENP,ioos.station.NOAA.NDBC:WWEF1:1,2016-12-07T07:00:00Z,25.2320,-80.9380,1.5,10.61,1111122 
ENP,ioos.station.NOAA.NDBC:WWEF1:1,2016-12-07T08:00:00Z,25.2320,-80.9380,1.5,10.74,1111122 
ENP,ioos.station.NOAA.NDBC:WWEF1:1,2016-12-07T09:00:00Z,25.2320,-80.9380,1.5,10.87,1111122 
ENP,ioos.station.NOAA.NDBC:WWEF1:1,2016-12-07T11:00:00Z,25.2320,-80.9380,1.5,11.13,1111122 
ENP,ioos.station.NOAA.NDBC:WWEF1:1,2016-12-07T12:00:00Z,25.2320,-80.9380,1.5,11.19,1111122 
ENP,ioos.station.NOAA.NDBC:WWEF1:1,2016-12-07T13:00:00Z,25.2320,-80.9380,1.5,11.26,1111122 
ENP,ioos.station.NOAA.NDBC:WWEF1:1,2016-12-07T14:00:00Z,25.2320,-80.9380,1.5,11.32,1111122 
ENP,ioos.station.NOAA.NDBC:WWEF1:1,2016-12-07T15:00:00Z,25.2320,-80.9380,1.5,11.32,1111122 
ENP,ioos.station.NOAA.NDBC:WWEF1:1,2016-12-07T16:00:00Z,25.2320,-80.9380,1.5,11.39,1111122 
ENP,ioos.station.NOAA.NDBC:WWEF1:1,2016-12-07T17:00:00Z,25.2320,-80.9380,1.5,11.45,1111122 
ENP,ioos.station.NOAA.NDBC:WWEF1:1,2016-12-07T18:00:00Z,25.2320,-80.9380,1.5,11.45,1111122 
ENP,ioos.station.NOAA.NDBC:WWEF1:1,2016-12-07T19:00:00Z,25.2320,-80.9380,1.5,11.52,1111122 
ENP,ioos.station.NOAA.NDBC:WWEF1:1,2016-12-07T20:00:00Z,25.2320,-80.9380,1.5,11.52,1111122 
ENP,ioos.station.NOAA.NDBC:WWEF1:1,2016-12-07T22:00:00Z,25.2320,-80.9380,1.5,11.58,1111122 
ENP,ioos.station.NOAA.NDBC:WWEF1:1,2016-12-07T23:00:00Z,25.2320,-80.9380,1.5,11.71,1111122 
ENP,ioos.station.NOAA.NDBC:WWEF1:1,2016-12-08T00:00:00Z,25.2320,-80.9380,1.5,11.71,1111122 
ENP,ioos.station.NOAA.NDBC:WWEF1:1,2016-12-08T01:00:00Z,25.2320,-80.9380,1.5,11.71,1111122 
ENP,ioos.station.NOAA.NDBC:WWEF1:1,2016-12-08T02:00:00Z,25.2320,-80.9380,1.5,11.71,1111122 
ENP,ioos.station.NOAA.NDBC:WWEF1:1,2016-12-08T04:00:00Z,25.2320,-80.9380,1.5,11.78,1111122 
ENP,ioos.station.NOAA.NDBC:WWEF1:1,2016-12-08T07:00:00Z,25.2320,-80.9380,1.5,11.84,1111122 
ENP,ioos.station.NOAA.NDBC:WWEF1:1,2016-12-08T08:00:00Z,25.2320,-80.9380,1.5,11.91,1111122 
ENP,ioos.station.NOAA.NDBC:WWEF1:1,2016-12-08T09:00:00Z,25.2320,-80.9380,1.5,11.97,1111122 
ENP,ioos.station.NOAA.NDBC:WWEF1:1,2016-12-08T11:00:00Z,25.2320,-80.9380,1.5,12.17,1111122 
ENP,ioos.station.NOAA.NDBC:WWEF1:1,2016-12-08T13:00:00Z,25.2320,-80.9380,1.5,12.17,1111122 
ENP,ioos.station.NOAA.NDBC:WWEF1:1,2016-12-08T14:00:00Z,25.2320,-80.9380,1.5,12.23,1111122 
ENP,ioos.station.NOAA.NDBC:WWEF1:1,2016-12-08T15:00:00Z,25.2320,-80.9380,1.5,12.17,1111122 
ENP,ioos.station.NOAA.NDBC:WWEF1:1,2016-12-08T16:00:00Z,25.2320,-80.9380,1.5,12.1,1111122 
ENP,ioos.station.NOAA.NDBC:WWEF1:1,2016-12-08T17:00:00Z,25.2320,-80.9380,1.5,12.1,1111122 
ENP,ioos.station.NOAA.NDBC:WWEF1:1,2016-12-08T19:00:00Z,25.2320,-80.9380,1.5,12.17,1111122 
ENP,ioos.station.NOAA.NDBC:WWEF1:1,2016-12-08T20:00:00Z,25.2320,-80.9380,1.5,11.78,1111122 
ENP,ioos.station.NOAA.NDBC:WWEF1:1,2016-12-08T21:00:00Z,25.2320,-80.9380,1.5,11.52,1111122 
ENP,ioos.station.NOAA.NDBC:WWEF1:1,2016-12-08T22:00:00Z,25.2320,-80.9380,1.5,11.39,1111122 
ENP,ioos.station.NOAA.NDBC:WWEF1:1,2016-12-08T23:00:00Z,25.2320,-80.9380,1.5,11.32,1111122 
ENP,ioos.station.NOAA.NDBC:WWEF1:1,2016-12-09T00:00:00Z,25.2320,-80.9380,1.5,11.26,1111122 
ENP,ioos.station.NOAA.NDBC:WWEF1:1,2016-12-09T01:00:00Z,25.2320,-80.9380,1.5,11.26,1111122 
ENP,ioos.station.NOAA.NDBC:WWEF1:1,2016-12-09T02:00:00Z,25.2320,-80.9380,1.5,11.26,1111122 
ENP,ioos.station.NOAA.NDBC:WWEF1:1,2016-12-09T04:00:00Z,25.2320,-80.9380,1.5,11.84,1111122 
ENP,ioos.station.NOAA.NDBC:WWEF1:1,2016-12-09T05:00:00Z,25.2320,-80.9380,1.5,11.91,1111122 
ENP,ioos.station.NOAA.NDBC:WWEF1:1,2016-12-09T08:00:00Z,25.2320,-80.9380,1.5,12.04,1111122 
ENP,ioos.station.NOAA.NDBC:WWEF1:1,2016-12-09T09:00:00Z,25.2320,-80.9380,1.5,11.97,1111122 
ENP,ioos.station.NOAA.NDBC:WWEF1:1,2016-12-09T11:00:00Z,25.2320,-80.9380,1.5,11.91,1111122 
ENP,ioos.station.NOAA.NDBC:WWEF1:1,2016-12-09T13:00:00Z,25.2320,-80.9380,1.5,11.78,1111122 
ENP,ioos.station.NOAA.NDBC:WWEF1:1,2016-12-09T14:00:00Z,25.2320,-80.9380,1.5,11.78,1111122 
ENP,ioos.station.NOAA.NDBC:WWEF1:1,2016-12-09T15:00:00Z,25.2320,-80.9380,1.5,11.71,1111122 
ENP,ioos.station.NOAA.NDBC:WWEF1:1,2016-12-09T16:00:00Z,25.2320,-80.9380,1.5,11.71,1111122 
ENP,ioos.station.NOAA.NDBC:WWEF1:1,2016-12-09T17:00:00Z,25.2320,-80.9380,1.5,11.71,1111122 
ENP,ioos.station.NOAA.NDBC:WWEF1:1,2016-12-09T18:00:00Z,25.2320,-80.9380,1.5,11.71,1111122 
ENP,ioos.station.NOAA.NDBC:WWEF1:1,2016-12-09T19:00:00Z,25.2320,-80.9380,1.5,11.71,1111122 
ENP,ioos.station.NOAA.NDBC:WWEF1:1,2016-12-09T20:00:00Z,25.2320,-80.9380,1.5,11.71,1111122 
ENP,ioos.station.NOAA.NDBC:WWEF1:1,2016-12-09T21:00:00Z,25.2320,-80.9380,1.5,11.71,1111122 
ENP,ioos.station.NOAA.NDBC:WWEF1:1,2016-12-09T22:00:00Z,25.2320,-80.9380,1.5,11.71,1111122 
ENP,ioos.station.NOAA.NDBC:WWEF1:1,2016-12-09T23:00:00Z,25.2320,-80.9380,1.5,11.71,1111122 
ENP,ioos.station.NOAA.NDBC:WWEF1:1,2016-12-10T00:00:00Z,25.2320,-80.9380,1.5,11.78,1111122 
ENP,ioos.station.NOAA.NDBC:WWEF1:1,2016-12-10T01:00:00Z,25.2320,-80.9380,1.5,11.84,1111122 
ENP,ioos.station.NOAA.NDBC:WWEF1:1,2016-12-10T04:00:00Z,25.2320,-80.9380,1.5,11.91,1111122 
ENP,ioos.station.NOAA.NDBC:WWEF1:1,2016-12-10T05:00:00Z,25.2320,-80.9380,1.5,11.97,1111122 
ENP,ioos.station.NOAA.NDBC:WWEF1:1,2016-12-10T07:00:00Z,25.2320,-80.9380,1.5,11.91,1111122 
ENP,ioos.station.NOAA.NDBC:WWEF1:1,2016-12-10T08:00:00Z,25.2320,-80.9380,1.5,11.97,1111122 
ENP,ioos.station.NOAA.NDBC:WWEF1:1,2016-12-10T09:00:00Z,25.2320,-80.9380,1.5,11.91,1111122 
ENP,ioos.station.NOAA.NDBC:WWEF1:1,2016-12-10T11:00:00Z,25.2320,-80.9380,1.5,11.91,1111122 
ENP,ioos.station.NOAA.NDBC:WWEF1:1,2016-12-10T12:00:00Z,25.2320,-80.9380,1.5,11.91,1111122 
ENP,ioos.station.NOAA.NDBC:WWEF1:1,2016-12-10T13:00:00Z,25.2320,-80.9380,1.5,11.97,1111122 
ENP,ioos.station.NOAA.NDBC:WWEF1:1,2016-12-10T14:00:00Z,25.2320,-80.9380,1.5,11.97,1111122 
ENP,ioos.station.NOAA.NDBC:WWEF1:1,2016-12-10T15:00:00Z,25.2320,-80.9380,1.5,11.91,1111122 
ENP,ioos.station.NOAA.NDBC:WWEF1:1,2016-12-10T16:00:00Z,25.2320,-80.9380,1.5,11.91,1111122 
ENP,ioos.station.NOAA.NDBC:WWEF1:1,2016-12-10T17:00:00Z,25.2320,-80.9380,1.5,11.84,1111122 
ENP,ioos.station.NOAA.NDBC:WWEF1:1,2016-12-10T18:00:00Z,25.2320,-80.9380,1.5,11.84,1111122 
ENP,ioos.station.NOAA.NDBC:WWEF1:1,2016-12-10T19:00:00Z,25.2320,-80.9380,1.5,11.78,1111122 
ENP,ioos.station.NOAA.NDBC:WWEF1:1,2016-12-10T20:00:00Z,25.2320,-80.9380,1.5,11.78,1111122 
ENP,ioos.station.NOAA.NDBC:WWEF1:1,2016-12-10T21:00:00Z,25.2320,-80.9380,1.5,11.71,1111122 
ENP,ioos.station.NOAA.NDBC:WWEF1:1,2016-12-10T22:00:00Z,25.2320,-80.9380,1.5,11.78,1111122 
ENP,ioos.station.NOAA.NDBC:WWEF1:1,2016-12-10T23:00:00Z,25.2320,-80.9380,1.5,11.78,1111122 
ENP,ioos.station.NOAA.NDBC:WWEF1:1,2016-12-11T00:00:00Z,25.2320,-80.9380,1.5,11.78,1111122 
ENP,ioos.station.NOAA.NDBC:WWEF1:1,2016-12-11T01:00:00Z,25.2320,-80.9380,1.5,11.78,1111122 
ENP,ioos.station.NOAA.NDBC:WWEF1:1,2016-12-11T03:00:00Z,25.2320,-80.9380,1.5,11.78,1111122 
ENP,ioos.station.NOAA.NDBC:WWEF1:1,2016-12-11T04:00:00Z,25.2320,-80.9380,1.5,11.78,1111122 
ENP,ioos.station.NOAA.NDBC:WWEF1:1,2016-12-11T05:00:00Z,25.2320,-80.9380,1.5,11.78,1111122 
ENP,ioos.station.NOAA.NDBC:WWEF1:1,2016-12-11T07:00:00Z,25.2320,-80.9380,1.5,11.71,1111122 
ENP,ioos.station.NOAA.NDBC:WWEF1:1,2016-12-11T08:00:00Z,25.2320,-80.9380,1.5,11.71,1111122 
ENP,ioos.station.NOAA.NDBC:WWEF1:1,2016-12-11T09:00:00Z,25.2320,-80.9380,1.5,11.78,1111122 
ENP,ioos.station.NOAA.NDBC:WWEF1:1,2016-12-11T10:00:00Z,25.2320,-80.9380,1.5,11.71,1111122 
ENP,ioos.station.NOAA.NDBC:WWEF1:1,2016-12-11T12:00:00Z,25.2320,-80.9380,1.5,11.78,1111122 
ENP,ioos.station.NOAA.NDBC:WWEF1:1,2016-12-11T13:00:00Z,25.2320,-80.9380,1.5,11.78,1111122 
ENP,ioos.station.NOAA.NDBC:WWEF1:1,2016-12-11T14:00:00Z,25.2320,-80.9380,1.5,11.71,1111122 
ENP,ioos.station.NOAA.NDBC:WWEF1:1,2016-12-11T15:00:00Z,25.2320,-80.9380,1.5,11.71,1111122 
ENP,ioos.station.NOAA.NDBC:WWEF1:1,2016-12-11T16:00:00Z,25.2320,-80.9380,1.5,11.65,1111122 
ENP,ioos.station.NOAA.NDBC:WWEF1:1,2016-12-11T17:00:00Z,25.2320,-80.9380,1.5,11.65,1111122 
ENP,ioos.station.NOAA.NDBC:WWEF1:1,2016-12-11T18:00:00Z,25.2320,-80.9380,1.5,11.58,1111122 
ENP,ioos.station.NOAA.NDBC:WWEF1:1,2016-12-11T19:00:00Z,25.2320,-80.9380,1.5,11.32,1111122 
ENP,ioos.station.NOAA.NDBC:WWEF1:1,2016-12-11T20:00:00Z,25.2320,-80.9380,1.5,11.26,1111122 
ENP,ioos.station.NOAA.NDBC:WWEF1:1,2016-12-11T21:00:00Z,25.2320,-80.9380,1.5,11.19,1111122 
ENP,ioos.station.NOAA.NDBC:WWEF1:1,2016-12-11T23:00:00Z,25.2320,-80.9380,1.5,11.19,1111122 
ENP,ioos.station.NOAA.NDBC:WWEF1:1,2016-12-12T00:00:00Z,25.2320,-80.9380,1.5,11.19,1111122 
ENP,ioos.station.NOAA.NDBC:WWEF1:1,2016-12-12T01:00:00Z,25.2320,-80.9380,1.5,11.19,1111122 
ENP,ioos.station.NOAA.NDBC:WWEF1:1,2016-12-12T02:00:00Z,25.2320,-80.9380,1.5,11.19,1111122 
ENP,ioos.station.NOAA.NDBC:WWEF1:1,2016-12-12T04:00:00Z,25.2320,-80.9380,1.5,10.36,1111122 
ENP,ioos.station.NOAA.NDBC:WWEF1:1,2016-12-12T06:00:00Z,25.2320,-80.9380,1.5,10.42,1111122 
ENP,ioos.station.NOAA.NDBC:WWEF1:1,2016-12-12T07:00:00Z,25.2320,-80.9380,1.5,10.81,1111122 
ENP,ioos.station.NOAA.NDBC:WWEF1:1,2016-12-12T08:00:00Z,25.2320,-80.9380,1.5,10.94,1111122 
ENP,ioos.station.NOAA.NDBC:WWEF1:1,2016-12-12T09:00:00Z,25.2320,-80.9380,1.5,11.06,1111122 
ENP,ioos.station.NOAA.NDBC:WWEF1:1,2016-12-12T10:00:00Z,25.2320,-80.9380,1.5,10.94,1111122 
ENP,ioos.station.NOAA.NDBC:WWEF1:1,2016-12-12T11:00:00Z,25.2320,-80.9380,1.5,10.74,1111122 
ENP,ioos.station.NOAA.NDBC:WWEF1:1,2016-12-12T13:00:00Z,25.2320,-80.9380,1.5,10.81,1111122 
ENP,ioos.station.NOAA.NDBC:WWEF1:1,2016-12-12T15:00:00Z,25.2320,-80.9380,1.5,10.36,1111122 
ENP,ioos.station.NOAA.NDBC:WWEF1:1,2016-12-12T17:00:00Z,25.2320,-80.9380,1.5,10.16,1111122 
ENP,ioos.station.NOAA.NDBC:WWEF1:1,2016-12-12T18:00:00Z,25.2320,-80.9380,1.5,10.16,1111122 
ENP,ioos.station.NOAA.NDBC:WWEF1:1,2016-12-12T19:00:00Z,25.2320,-80.9380,1.5,10.16,1111122 
ENP,ioos.station.NOAA.NDBC:WWEF1:1,2016-12-12T20:00:00Z,25.2320,-80.9380,1.5,10.16,1111122 
ENP,ioos.station.NOAA.NDBC:WWEF1:1,2016-12-12T21:00:00Z,25.2320,-80.9380,1.5,10.16,1111122 
ENP,ioos.station.NOAA.NDBC:WWEF1:1,2016-12-12T22:00:00Z,25.2320,-80.9380,1.5,10.16,1111122 
ENP,ioos.station.NOAA.NDBC:WWEF1:1,2016-12-12T23:00:00Z,25.2320,-80.9380,1.5,10.23,1111122 
ENP,ioos.station.NOAA.NDBC:WWEF1:1,2016-12-13T00:00:00Z,25.2320,-80.9380,1.5,10.23,1111122 
ENP,ioos.station.NOAA.NDBC:WWEF1:1,2016-12-13T01:00:00Z,25.2320,-80.9380,1.5,10.29,1111122 
ENP,ioos.station.NOAA.NDBC:WWEF1:1,2016-12-13T02:00:00Z,25.2320,-80.9380,1.5,10.29,1111122 
ENP,ioos.station.NOAA.NDBC:WWEF1:1,2016-12-13T04:00:00Z,25.2320,-80.9380,1.5,10.29,1111122 
ENP,ioos.station.NOAA.NDBC:WWEF1:1,2016-12-13T05:00:00Z,25.2320,-80.9380,1.5,10.48,1111122 
ENP,ioos.station.NOAA.NDBC:WWEF1:1,2016-12-13T07:00:00Z,25.2320,-80.9380,1.5,11.0,1111122 
ENP,ioos.station.NOAA.NDBC:WWEF1:1,2016-12-13T08:00:00Z,25.2320,-80.9380,1.5,11.32,1111122 
ENP,ioos.station.NOAA.NDBC:WWEF1:1,2016-12-13T09:00:00Z,25.2320,-80.9380,1.5,11.52,1111122 
ENP,ioos.station.NOAA.NDBC:WWEF1:1,2016-12-13T11:00:00Z,25.2320,-80.9380,1.5,11.13,1111122 
ENP,ioos.station.NOAA.NDBC:WWEF1:1,2016-12-13T13:00:00Z,25.2320,-80.9380,1.5,11.52,1111122 
ENP,ioos.station.NOAA.NDBC:WWEF1:1,2016-12-13T14:00:00Z,25.2320,-80.9380,1.5,11.65,1111122 
ENP,ioos.station.NOAA.NDBC:WWEF1:1,2016-12-13T15:00:00Z,25.2320,-80.9380,1.5,11.78,1111122 
ENP,ioos.station.NOAA.NDBC:WWEF1:1,2016-12-13T16:00:00Z,25.2320,-80.9380,1.5,11.84,1111122 
ENP,ioos.station.NOAA.NDBC:WWEF1:1,2016-12-13T17:00:00Z,25.2320,-80.9380,1.5,11.84,1111122 
ENP,ioos.station.NOAA.NDBC:WWEF1:1,2016-12-13T18:00:00Z,25.2320,-80.9380,1.5,11.58,1111122 
ENP,ioos.station.NOAA.NDBC:WWEF1:1,2016-12-13T19:00:00Z,25.2320,-80.9380,1.5,10.94,1111122 
ENP,ioos.station.NOAA.NDBC:WWEF1:1,2016-12-13T20:00:00Z,25.2320,-80.9380,1.5,10.81,1111122 
ENP,ioos.station.NOAA.NDBC:WWEF1:1,2016-12-13T21:00:00Z,25.2320,-80.9380,1.5,10.81,1111122 
ENP,ioos.station.NOAA.NDBC:WWEF1:1,2016-12-13T22:00:00Z,25.2320,-80.9380,1.5,10.81,1111122 
ENP,ioos.station.NOAA.NDBC:WWEF1:1,2016-12-13T23:00:00Z,25.2320,-80.9380,1.5,10.81,1111122 
ENP,ioos.station.NOAA.NDBC:WWEF1:1,2016-12-14T00:00:00Z,25.2320,-80.9380,1.5,10.74,1111122 
ENP,ioos.station.NOAA.NDBC:WWEF1:1,2016-12-14T01:00:00Z,25.2320,-80.9380,1.5,10.68,1111122 
ENP,ioos.station.NOAA.NDBC:WWEF1:1,2016-12-14T03:00:00Z,25.2320,-80.9380,1.5,10.68,1111122 
ENP,ioos.station.NOAA.NDBC:WWEF1:1,2016-12-14T04:00:00Z,25.2320,-80.9380,1.5,10.68,1111122 
ENP,ioos.station.NOAA.NDBC:WWEF1:1,2016-12-14T06:00:00Z,25.2320,-80.9380,1.5,11.32,1111122 
ENP,ioos.station.NOAA.NDBC:WWEF1:1,2016-12-14T07:00:00Z,25.2320,-80.9380,1.5,11.58,1111122 
ENP,ioos.station.NOAA.NDBC:WWEF1:1,2016-12-14T08:00:00Z,25.2320,-80.9380,1.5,11.71,1111122 
ENP,ioos.station.NOAA.NDBC:WWEF1:1,2016-12-14T09:00:00Z,25.2320,-80.9380,1.5,11.84,1111122 
ENP,ioos.station.NOAA.NDBC:WWEF1:1,2016-12-14T11:00:00Z,25.2320,-80.9380,1.5,11.65,1111122 
ENP,ioos.station.NOAA.NDBC:WWEF1:1,2016-12-14T13:00:00Z,25.2320,-80.9380,1.5,11.91,1111122 
ENP,ioos.station.NOAA.NDBC:WWEF1:1,2016-12-14T22:00:00Z,25.2320,-80.9380,1.5,11.58,1111122 
ENP,ioos.station.NOAA.NDBC:WWEF1:1,2016-12-14T23:00:00Z,25.2320,-80.9380,1.5,11.71,1111122 
ENP,ioos.station.NOAA.NDBC:WWEF1:1,2016-12-15T00:00:00Z,25.2320,-80.9380,1.5,11.58,1111122 
ENP,ioos.station.NOAA.NDBC:WWEF1:1,2016-12-15T01:00:00Z,25.2320,-80.9380,1.5,11.52,1111122 
ENP,ioos.station.NOAA.NDBC:WWEF1:1,2016-12-15T02:00:00Z,25.2320,-80.9380,1.5,11.65,1111122 
ENP,ioos.station.NOAA.NDBC:WWEF1:1,2016-12-15T07:00:00Z,25.2320,-80.9380,1.5,11.19,1111122 